| time (UTC) | temp C | wind direction | speed KPH | gust KPH | rain 1hr cm | rain 24hr cm | rain mn cm | humidity % | barometer mb |
| 20260507085306 | 12 | 39 | 3.2 | 4.8 | 0.00 | 0.58 | 0.33 | 90 | 1009.6 |
| 20260507084804 | 12 | 39 | 3.2 | 4.8 | 0.00 | 0.58 | 0.33 | 90 | 1009.5 |
| 20260507084303 | 12 | 39 | 0.0 | 1.6 | 0.00 | 0.58 | 0.33 | 90 | 1009.5 |
| 20260507083803 | 12 | 39 | 3.2 | 4.8 | 0.00 | 0.58 | 0.33 | 90 | 1009.4 |
| 20260507083303 | 12 | 39 | 1.6 | 4.8 | 0.00 | 0.58 | 0.33 | 90 | 1009.4 |
| 20260507082803 | 12 | 39 | 1.6 | 4.8 | 0.00 | 0.58 | 0.33 | 90 | 1009.3 |
| 20260507082306 | 12 | 39 | 1.6 | 4.8 | 0.00 | 0.58 | 0.33 | 90 | 1009.2 |
| 20260507081804 | 12 | 45 | 3.2 | 4.8 | 0.00 | 0.58 | 0.33 | 90 | 1009.0 |
| 20260507081303 | 12 | 20 | 1.6 | 4.8 | 0.00 | 0.58 | 0.33 | 89 | 1009.0 |
| 20260507080303 | 12 | 20 | 1.6 | 3.2 | 0.00 | 0.58 | 0.33 | 89 | 1009.1 |
| 20260507075803 | 12 | 20 | 1.6 | 8.0 | 0.00 | 0.58 | 0.33 | 89 | 1009.0 |
| 20260507075306 | 12 | 20 | 4.8 | 8.0 | 0.00 | 0.58 | 0.33 | 89 | 1008.9 |
| 20260507073803 | 12 | 12 | 9.7 | 16.1 | 0.00 | 0.58 | 0.33 | 89 | 1008.7 |
| 20260507073303 | 12 | 5 | 9.7 | 19.3 | 0.00 | 0.58 | 0.33 | 89 | 1008.9 |
| 20260507072803 | 12 | 2 | 11.3 | 24.1 | 0.00 | 0.58 | 0.33 | 89 | 1008.7 |
| 20260507072307 | 12 | 8 | 12.9 | 25.7 | 0.00 | 0.58 | 0.33 | 89 | 1008.7 |
| 20260507071804 | 12 | 358 | 14.5 | 25.7 | 0.00 | 0.58 | 0.33 | 89 | 1008.7 |
| 20260507071304 | 12 | 6 | 16.1 | 29.0 | 0.00 | 0.58 | 0.33 | 90 | 1008.7 |
| 20260507070803 | 12 | 5 | 9.7 | 19.3 | 0.00 | 0.58 | 0.33 | 91 | 1008.9 |
| 20260507070304 | 13 | 8 | 8.0 | 12.9 | 0.00 | 0.58 | 0.33 | 91 | 1008.9 |
| 20260507065803 | 13 | 2 | 9.7 | 16.1 | 0.00 | 0.58 | 0.33 | 91 | 1009.0 |
| 20260507065306 | 13 | 353 | 6.4 | 16.1 | 0.00 | 0.58 | 0.33 | 91 | 1009.1 |
| 20260507064804 | 13 | 328 | 4.8 | 9.7 | 0.00 | 0.58 | 0.33 | 91 | 1009.1 |
| 20260507064303 | 13 | 339 | 4.8 | 11.3 | 0.00 | 0.58 | 0.33 | 91 | 1008.9 |
| 20260507063803 | 13 | 352 | 8.0 | 14.5 | 0.00 | 0.58 | 0.33 | 91 | 1008.6 |
| 20260507063303 | 13 | 15 | 8.0 | 12.9 | 0.00 | 0.58 | 0.33 | 91 | 1008.4 |
| 20260507062803 | 13 | 0 | 8.0 | 14.5 | 0.03 | 0.58 | 0.33 | 91 | 1008.5 |
| 20260507062306 | 13 | 356 | 4.8 | 11.3 | 0.03 | 0.58 | 0.33 | 91 | 1008.7 |
| 20260507061803 | 13 | 1 | 6.4 | 11.3 | 0.03 | 0.58 | 0.33 | 90 | 1008.8 |
| 20260507061303 | 13 | 341 | 6.4 | 12.9 | 0.03 | 0.58 | 0.33 | 90 | 1008.9 |
| 20260507060804 | 13 | 344 | 6.4 | 11.3 | 0.05 | 0.58 | 0.33 | 90 | 1008.9 |
| 20260507060304 | 13 | 3 | 8.0 | 11.3 | 0.15 | 0.58 | 0.33 | 90 | 1008.7 |
| 20260507055804 | 13 | 4 | 4.8 | 12.9 | 0.15 | 0.58 | 0.33 | 89 | 1008.8 |
| 20260507055306 | 13 | 7 | 8.0 | 11.3 | 0.18 | 0.58 | 0.33 | 89 | 1008.9 |
| 20260507054803 | 13 | 340 | 6.4 | 14.5 | 0.30 | 0.58 | 0.33 | 89 | 1009.0 |
| 20260507054303 | 13 | 5 | 8.0 | 14.5 | 0.33 | 0.58 | 0.33 | 88 | 1008.7 |
| 20260507053803 | 14 | 3 | 4.8 | 9.7 | 0.33 | 0.58 | 0.33 | 88 | 1009.1 |
| 20260507053303 | 14 | 343 | 1.6 | 4.8 | 0.33 | 0.58 | 0.33 | 87 | 1009.2 |
| 20260507052803 | 14 | 296 | 3.2 | 9.7 | 0.30 | 0.56 | 0.30 | 87 | 1009.2 |
| 20260507052306 | 14 | 345 | 3.2 | 11.3 | 0.30 | 0.56 | 0.30 | 86 | 1009.0 |
| 20260507051803 | 14 | 338 | 8.0 | 12.9 | 0.30 | 0.56 | 0.30 | 86 | 1008.9 |
| 20260507051304 | 15 | 341 | 8.0 | 12.9 | 0.30 | 0.56 | 0.30 | 85 | 1009.0 |
| 20260507050803 | 15 | 1 | 12.9 | 24.1 | 0.28 | 0.53 | 0.28 | 84 | 1009.1 |
| 20260507045803 | 15 | 353 | 9.7 | 25.7 | 0.18 | 0.43 | 0.18 | 82 | 1009.4 |
| 20260507045306 | 15 | 328 | 8.0 | 14.5 | 0.15 | 0.41 | 0.15 | 81 | 1009.0 |
| 20260507044303 | 16 | 337 | 11.3 | 19.3 | 0.00 | 0.25 | 0.00 | 77 | 1008.8 |
| 20260507043804 | 16 | 335 | 9.7 | 19.3 | 0.00 | 0.25 | 0.00 | 77 | 1008.8 |
| 20260507043303 | 16 | 344 | 11.3 | 19.3 | 0.00 | 0.25 | 0.00 | 76 | 1008.6 |
| 20260507042803 | 16 | 354 | 11.3 | 24.1 | 0.00 | 0.25 | 0.00 | 76 | 1008.9 |
| 20260507042306 | 16 | 351 | 11.3 | 25.7 | 0.00 | 0.25 | 0.00 | 76 | 1008.9 |
| 20260507041804 | 16 | 346 | 14.5 | 27.4 | 0.00 | 0.25 | 0.00 | 76 | 1008.8 |
| 20260507041303 | 16 | 350 | 16.1 | 29.0 | 0.00 | 0.25 | 0.00 | 77 | 1008.4 |
| 20260507040803 | 17 | 347 | 12.9 | 27.4 | 0.00 | 0.25 | 0.00 | 78 | 1008.4 |
| 20260507040304 | 17 | 356 | 11.3 | 14.5 | 0.00 | 0.25 | 0.00 | 79 | 1008.1 |
| 20260507035803 | 17 | 8 | 11.3 | 19.3 | 0.00 | 0.25 | 0.25 | 79 | 1007.9 |
| 20260507035306 | 17 | 0 | 9.7 | 20.9 | 0.00 | 0.25 | 0.25 | 79 | 1007.9 |
| 20260507034304 | 17 | 354 | 3.2 | 11.3 | 0.00 | 0.25 | 0.25 | 79 | 1007.8 |
| 20260507033803 | 17 | 358 | 4.8 | 11.3 | 0.00 | 0.25 | 0.25 | 79 | 1008.1 |
| 20260507033303 | 17 | 326 | 8.0 | 14.5 | 0.00 | 0.25 | 0.25 | 79 | 1008.3 |
| 20260507032305 | 17 | 336 | 9.7 | 14.5 | 0.00 | 0.25 | 0.25 | 78 | 1008.1 |
| 20260507031803 | 17 | 354 | 6.4 | 14.5 | 0.00 | 0.25 | 0.25 | 78 | 1008.1 |
| 20260507031303 | 17 | 324 | 8.0 | 14.5 | 0.00 | 0.25 | 0.25 | 77 | 1008.2 |
| 20260507030803 | 17 | 325 | 4.8 | 8.0 | 0.00 | 0.25 | 0.25 | 77 | 1008.2 |
| 20260507030304 | 17 | 346 | 4.8 | 8.0 | 0.00 | 0.25 | 0.25 | 77 | 1007.9 |
| 20260507025804 | 17 | 355 | 3.2 | 8.0 | 0.00 | 0.25 | 0.25 | 76 | 1007.7 |
| 20260507024804 | 18 | 330 | 9.7 | 16.1 | 0.00 | 0.25 | 0.25 | 76 | 1007.7 |
| 20260507024303 | 18 | 353 | 6.4 | 24.1 | 0.00 | 0.25 | 0.25 | 76 | 1007.6 |
| 20260507023803 | 18 | 343 | 9.7 | 20.9 | 0.00 | 0.25 | 0.25 | 76 | 1007.7 |
| 20260507023303 | 18 | 12 | 8.0 | 19.3 | 0.00 | 0.25 | 0.25 | 76 | 1007.4 |
| 20260507022804 | 18 | 2 | 8.0 | 19.3 | 0.00 | 0.25 | 0.25 | 76 | 1007.2 |
| 20260507022306 | 18 | 342 | 9.7 | 20.9 | 0.00 | 0.25 | 0.25 | 77 | 1007.6 |
| 20260507021803 | 18 | 340 | 9.7 | 24.1 | 0.00 | 0.25 | 0.25 | 77 | 1007.2 |
| 20260507021303 | 18 | 339 | 9.7 | 20.9 | 0.00 | 0.25 | 0.25 | 79 | 1007.6 |
| 20260507020803 | 18 | 350 | 9.7 | 20.9 | 0.00 | 0.25 | 0.25 | 80 | 1007.5 |
| 20260507020303 | 19 | 1 | 16.1 | 24.1 | 0.00 | 0.25 | 0.25 | 81 | 1007.5 |
| 20260507015804 | 19 | 355 | 11.3 | 19.3 | 0.00 | 0.25 | 0.25 | 82 | 1007.4 |
| 20260507014303 | 19 | 329 | 4.8 | 9.7 | 0.00 | 0.25 | 0.25 | 83 | 1007.3 |
| 20260507013803 | 20 | 354 | 8.0 | 19.3 | 0.00 | 0.25 | 0.25 | 83 | 1007.4 |
| 20260507013304 | 20 | 357 | 3.2 | 11.3 | 0.00 | 0.25 | 0.25 | 83 | 1007.4 |
| 20260507011804 | 20 | 289 | 6.4 | 11.3 | 0.00 | 0.25 | 0.25 | 82 | 1007.5 |
| 20260507011303 | 20 | 306 | 1.6 | 4.8 | 0.00 | 0.25 | 0.25 | 82 | 1007.4 |
| 20260507010804 | 20 | 228 | 3.2 | 4.8 | 0.00 | 0.25 | 0.25 | 82 | 1007.3 |
| 20260507010304 | 20 | 234 | 3.2 | 8.0 | 0.00 | 0.25 | 0.25 | 82 | 1007.2 |
| 20260507005803 | 20 | 213 | 3.2 | 8.0 | 0.00 | 0.25 | 0.25 | 82 | 1007.1 |
| 20260507005306 | 20 | 226 | 1.6 | 4.8 | 0.00 | 0.25 | 0.25 | 82 | 1007.1 |
| 20260507004304 | 20 | 268 | 3.2 | 8.0 | 0.00 | 0.25 | 0.25 | 81 | 1007.1 |
| 20260507003803 | 20 | 233 | 1.6 | 12.9 | 0.00 | 0.25 | 0.25 | 81 | 1007.0 |
| 20260507003303 | 20 | 185 | 1.6 | 3.2 | 0.00 | 0.25 | 0.25 | 81 | 1006.9 |
| 20260507002804 | 20 | 188 | 3.2 | 11.3 | 0.00 | 0.25 | 0.25 | 81 | 1007.1 |
| 20260507001303 | 20 | 207 | 1.6 | 4.8 | 0.00 | 0.25 | 0.25 | 81 | 1006.8 |
| 20260507000803 | 20 | 162 | 3.2 | 8.0 | 0.00 | 0.25 | 0.25 | 81 | 1006.8 |
| 20260507000306 | 20 | 231 | 3.2 | 8.0 | 0.00 | 0.25 | 0.25 | 81 | 1006.8 |
| 20260506235803 | 20 | 204 | 3.2 | 9.7 | 0.00 | 0.25 | 0.25 | 80 | 1006.6 |
| 20260506235306 | 20 | 167 | 4.8 | 9.7 | 0.00 | 0.25 | 0.25 | 80 | 1006.6 |
| 20260506234804 | 20 | 193 | 4.8 | 8.0 | 0.00 | 0.25 | 0.25 | 80 | 1006.6 |
| 20260506234303 | 20 | 181 | 3.2 | 11.3 | 0.00 | 0.25 | 0.25 | 80 | 1006.4 |
| 20260506233803 | 20 | 210 | 4.8 | 11.3 | 0.00 | 0.25 | 0.25 | 79 | 1006.4 |
| 20260506233303 | 20 | 186 | 8.0 | 12.9 | 0.00 | 0.25 | 0.25 | 79 | 1006.4 |
| 20260506232803 | 20 | 184 | 3.2 | 9.7 | 0.00 | 0.25 | 0.25 | 79 | 1006.3 |
| 20260506232306 | 20 | 185 | 1.6 | 8.0 | 0.00 | 0.25 | 0.25 | 79 | 1006.3 |
| 20260506231803 | 21 | 185 | 4.8 | 12.9 | 0.00 | 0.25 | 0.25 | 79 | 1006.2 |
| 20260506231303 | 21 | 188 | 8.0 | 14.5 | 0.00 | 0.25 | 0.25 | 78 | 1006.2 |
| 20260506230804 | 21 | 193 | 6.4 | 16.1 | 0.00 | 0.25 | 0.25 | 78 | 1006.3 |
| 20260506230303 | 21 | 199 | 9.7 | 14.5 | 0.00 | 0.25 | 0.25 | 78 | 1006.2 |
| 20260506225803 | 21 | 201 | 9.7 | 14.5 | 0.00 | 0.25 | 0.25 | 78 | 1006.2 |
| 20260506224804 | 21 | 199 | 4.8 | 11.3 | 0.00 | 0.25 | 0.25 | 78 | 1005.9 |
| 20260506224304 | 21 | 200 | 3.2 | 11.3 | 0.00 | 0.25 | 0.25 | 78 | 1006.0 |
| 20260506223803 | 21 | 190 | 3.2 | 8.0 | 0.00 | 0.25 | 0.25 | 78 | 1005.9 |
| 20260506223303 | 21 | 183 | 3.2 | 8.0 | 0.00 | 0.25 | 0.25 | 78 | 1006.0 |
| 20260506222804 | 21 | 228 | 4.8 | 12.9 | 0.00 | 0.25 | 0.25 | 77 | 1006.2 |
| 20260506222306 | 21 | 175 | 3.2 | 9.7 | 0.00 | 0.25 | 0.25 | 77 | 1006.2 |
| 20260506221803 | 21 | 198 | 6.4 | 12.9 | 0.00 | 0.25 | 0.25 | 77 | 1006.2 |
| 20260506220304 | 21 | 248 | 4.8 | 14.5 | 0.00 | 0.25 | 0.25 | 76 | 1006.2 |
| 20260506215804 | 21 | 240 | 8.0 | 16.1 | 0.00 | 0.25 | 0.25 | 76 | 1006.1 |
| 20260506214803 | 21 | 214 | 8.0 | 14.5 | 0.00 | 0.25 | 0.25 | 76 | 1006.1 |
| 20260506214303 | 21 | 237 | 8.0 | 14.5 | 0.00 | 0.25 | 0.25 | 76 | 1006.1 |
| 20260506213804 | 21 | 233 | 4.8 | 14.5 | 0.00 | 0.25 | 0.25 | 76 | 1006.0 |
| 20260506213303 | 21 | 224 | 4.8 | 16.1 | 0.00 | 0.25 | 0.25 | 76 | 1005.9 |
| 20260506212803 | 21 | 230 | 8.0 | 19.3 | 0.00 | 0.25 | 0.25 | 76 | 1005.9 |
| 20260506211803 | 21 | 217 | 6.4 | 14.5 | 0.00 | 0.25 | 0.25 | 76 | 1005.9 |
| 20260506211303 | 21 | 237 | 8.0 | 16.1 | 0.00 | 0.25 | 0.25 | 75 | 1005.8 |
| 20260506210803 | 21 | 190 | 8.0 | 16.1 | 0.00 | 0.25 | 0.25 | 76 | 1005.9 |
| 20260506210303 | 21 | 233 | 4.8 | 12.9 | 0.00 | 0.25 | 0.25 | 76 | 1005.8 |
| 20260506205805 | 21 | 224 | 8.0 | 19.3 | 0.00 | 0.25 | 0.25 | 75 | 1005.7 |
| 20260506205306 | 21 | 226 | 8.0 | 19.3 | 0.00 | 0.25 | 0.25 | 76 | 1005.6 |
| 20260506204805 | 21 | 214 | 11.3 | 19.3 | 0.00 | 0.25 | 0.25 | 75 | 1005.6 |
| 20260506204304 | 21 | 210 | 8.0 | 20.9 | 0.00 | 0.25 | 0.25 | 76 | 1005.7 |
| 20260506203304 | 21 | 203 | 11.3 | 19.3 | 0.00 | 0.25 | 0.25 | 75 | 1005.7 |
| 20260506202803 | 21 | 217 | 14.5 | 22.5 | 0.00 | 0.25 | 0.25 | 75 | 1005.8 |
| 20260506202306 | 21 | 221 | 11.3 | 19.3 | 0.00 | 0.25 | 0.25 | 76 | 1005.6 |
| 20260506201804 | 21 | 178 | 9.7 | 19.3 | 0.00 | 0.25 | 0.25 | 75 | 1005.6 |
| 20260506201304 | 21 | 215 | 11.3 | 22.5 | 0.00 | 0.25 | 0.25 | 75 | 1005.6 |
| 20260506200803 | 21 | 211 | 9.7 | 19.3 | 0.00 | 0.25 | 0.25 | 74 | 1005.6 |
| 20260506200304 | 21 | 192 | 9.7 | 14.5 | 0.00 | 0.25 | 0.25 | 75 | 1005.7 |
| 20260506195804 | 21 | 262 | 4.8 | 16.1 | 0.00 | 0.25 | 0.25 | 75 | 1005.7 |
| 20260506195306 | 21 | 183 | 11.3 | 19.3 | 0.00 | 0.25 | 0.25 | 75 | 1005.7 |
| 20260506194803 | 21 | 177 | 3.2 | 20.9 | 0.00 | 0.25 | 0.25 | 76 | 1005.7 |
| 20260506193804 | 21 | 211 | 11.3 | 25.7 | 0.00 | 0.25 | 0.25 | 76 | 1005.8 |
| 20260506193304 | 21 | 199 | 9.7 | 24.1 | 0.00 | 0.25 | 0.25 | 77 | 1005.7 |
| 20260506192804 | 21 | 216 | 4.8 | 14.5 | 0.00 | 0.25 | 0.25 | 78 | 1005.7 |
| 20260506192305 | 21 | 214 | 4.8 | 20.9 | 0.00 | 0.25 | 0.25 | 78 | 1005.8 |
| 20260506191803 | 20 | 240 | 8.0 | 16.1 | 0.00 | 0.25 | 0.25 | 79 | 1005.8 |
| 20260506191303 | 20 | 201 | 11.3 | 22.5 | 0.00 | 0.25 | 0.25 | 79 | 1005.9 |
| 20260506190803 | 20 | 177 | 12.9 | 32.2 | 0.00 | 0.25 | 0.25 | 78 | 1005.9 |
| 20260506190303 | 20 | 205 | 12.9 | 24.1 | 0.00 | 0.25 | 0.25 | 79 | 1006.1 |
| 20260506185803 | 20 | 180 | 8.0 | 20.9 | 0.00 | 0.25 | 0.25 | 80 | 1006.0 |
| 20260506185306 | 20 | 211 | 14.5 | 22.5 | 0.00 | 0.25 | 0.25 | 80 | 1006.2 |
| 20260506184303 | 19 | 223 | 12.9 | 22.5 | 0.00 | 0.25 | 0.25 | 81 | 1006.4 |
| 20260506183803 | 19 | 202 | 12.9 | 29.0 | 0.00 | 0.25 | 0.25 | 82 | 1006.3 |
| 20260506183303 | 19 | 199 | 9.7 | 22.5 | 0.00 | 0.25 | 0.25 | 82 | 1006.4 |
| 20260506182804 | 19 | 206 | 11.3 | 24.1 | 0.00 | 0.25 | 0.25 | 82 | 1006.4 |
| 20260506182306 | 19 | 188 | 9.7 | 25.7 | 0.00 | 0.25 | 0.25 | 82 | 1006.4 |
| 20260506181804 | 19 | 206 | 14.5 | 29.0 | 0.00 | 0.25 | 0.25 | 82 | 1006.4 |
| 20260506181303 | 18 | 198 | 12.9 | 24.1 | 0.00 | 0.25 | 0.25 | 83 | 1006.5 |
| 20260506180304 | 18 | 231 | 19.3 | 32.2 | 0.00 | 0.25 | 0.25 | 82 | 1006.7 |
| 20260506175803 | 18 | 231 | 17.7 | 27.4 | 0.00 | 0.25 | 0.25 | 83 | 1006.7 |
| 20260506175306 | 18 | 227 | 19.3 | 32.2 | 0.00 | 0.25 | 0.25 | 83 | 1006.7 |
| 20260506174804 | 18 | 237 | 16.1 | 25.7 | 0.00 | 0.25 | 0.25 | 84 | 1006.6 |
| 20260506174304 | 18 | 221 | 11.3 | 33.8 | 0.00 | 0.25 | 0.25 | 84 | 1006.6 |
| 20260506173803 | 18 | 214 | 11.3 | 29.0 | 0.00 | 0.25 | 0.25 | 86 | 1006.5 |
| 20260506172804 | 18 | 227 | 14.5 | 25.7 | 0.00 | 0.25 | 0.25 | 87 | 1006.7 |
| 20260506172306 | 18 | 208 | 14.5 | 29.0 | 0.00 | 0.25 | 0.25 | 87 | 1006.8 |
| 20260506171804 | 18 | 214 | 17.7 | 32.2 | 0.00 | 0.25 | 0.25 | 87 | 1006.7 |
| 20260506171304 | 18 | 195 | 16.1 | 25.7 | 0.00 | 0.25 | 0.25 | 88 | 1006.7 |
| 20260506170804 | 17 | 213 | 4.8 | 25.7 | 0.00 | 0.25 | 0.25 | 89 | 1006.7 |
| 20260506170303 | 17 | 185 | 8.0 | 24.1 | 0.00 | 0.25 | 0.25 | 89 | 1006.7 |
| 20260506165804 | 17 | 201 | 16.1 | 29.0 | 0.00 | 0.25 | 0.25 | 90 | 1006.7 |
| 20260506165305 | 17 | 198 | 11.3 | 29.0 | 0.00 | 0.25 | 0.25 | 90 | 1006.8 |
| 20260506164803 | 17 | 208 | 14.5 | 33.8 | 0.00 | 0.25 | 0.25 | 90 | 1006.9 |
| 20260506164303 | 17 | 200 | 12.9 | 27.4 | 0.00 | 0.25 | 0.25 | 91 | 1006.9 |
| 20260506163804 | 17 | 205 | 8.0 | 27.4 | 0.00 | 0.25 | 0.25 | 91 | 1006.9 |
| 20260506163303 | 17 | 210 | 9.7 | 27.4 | 0.00 | 0.25 | 0.25 | 91 | 1006.8 |
| 20260506161803 | 16 | 195 | 14.5 | 27.4 | 0.00 | 0.25 | 0.25 | 92 | 1006.9 |
| 20260506160803 | 16 | 186 | 14.5 | 29.0 | 0.00 | 0.25 | 0.25 | 92 | 1007.0 |
| 20260506155306 | 16 | 181 | 12.9 | 22.5 | 0.00 | 0.25 | 0.25 | 92 | 1007.1 |
| 20260506154803 | 16 | 187 | 11.3 | 22.5 | 0.03 | 0.25 | 0.25 | 92 | 1007.1 |
| 20260506153803 | 16 | 189 | 14.5 | 25.7 | 0.03 | 0.25 | 0.25 | 92 | 1007.1 |
| 20260506153304 | 16 | 183 | 11.3 | 24.1 | 0.05 | 0.25 | 0.25 | 92 | 1007.1 |
| 20260506152803 | 16 | 189 | 12.9 | 24.1 | 0.08 | 0.25 | 0.25 | 92 | 1007.0 |
| 20260506151803 | 16 | 199 | 11.3 | 22.5 | 0.08 | 0.25 | 0.25 | 92 | 1007.6 |
| 20260506151303 | 16 | 200 | 11.3 | 20.9 | 0.10 | 0.25 | 0.25 | 92 | 1007.7 |
| 20260506150804 | 16 | 200 | 16.1 | 22.5 | 0.13 | 0.25 | 0.25 | 92 | 1007.8 |
| 20260506150304 | 16 | 192 | 11.3 | 20.9 | 0.13 | 0.25 | 0.25 | 91 | 1007.7 |
| 20260506145803 | 16 | 190 | 11.3 | 27.4 | 0.13 | 0.25 | 0.25 | 91 | 1007.9 |
| 20260506145305 | 16 | 167 | 11.3 | 20.9 | 0.15 | 0.25 | 0.25 | 91 | 1007.9 |
| 20260506144804 | 16 | 192 | 16.1 | 27.4 | 0.13 | 0.23 | 0.23 | 91 | 1008.0 |
| 20260506144303 | 16 | 203 | 14.5 | 25.7 | 0.15 | 0.23 | 0.23 | 91 | 1008.0 |
| 20260506143804 | 16 | 191 | 16.1 | 27.4 | 0.15 | 0.23 | 0.23 | 91 | 1007.9 |
| 20260506143303 | 16 | 188 | 12.9 | 20.9 | 0.13 | 0.20 | 0.20 | 90 | 1007.7 |
| 20260506142803 | 16 | 190 | 11.3 | 20.9 | 0.13 | 0.18 | 0.18 | 90 | 1007.9 |
| 20260506142305 | 16 | 182 | 14.5 | 22.5 | 0.13 | 0.18 | 0.18 | 90 | 1007.8 |
| 20260506141804 | 16 | 189 | 11.3 | 19.3 | 0.15 | 0.18 | 0.18 | 89 | 1007.8 |
| 20260506140803 | 16 | 206 | 11.3 | 27.4 | 0.10 | 0.13 | 0.13 | 89 | 1007.9 |
| 20260506140303 | 16 | 188 | 12.9 | 24.1 | 0.10 | 0.13 | 0.13 | 88 | 1007.9 |
| 20260506135804 | 16 | 204 | 9.7 | 20.9 | 0.10 | 0.13 | 0.13 | 88 | 1008.0 |
| 20260506135306 | 17 | 199 | 11.3 | 20.9 | 0.10 | 0.10 | 0.10 | 88 | 1008.0 |
| 20260506134803 | 17 | 190 | 11.3 | 20.9 | 0.10 | 0.10 | 0.10 | 87 | 1008.1 |
| 20260506133803 | 17 | 207 | 9.7 | 19.3 | 0.08 | 0.08 | 0.08 | 86 | 1008.5 |
| 20260506133303 | 17 | 205 | 9.7 | 20.9 | 0.08 | 0.08 | 0.08 | 86 | 1008.4 |
| 20260506132803 | 17 | 207 | 11.3 | 22.5 | 0.05 | 0.05 | 0.05 | 85 | 1008.3 |
| 20260506132306 | 17 | 194 | 11.3 | 24.1 | 0.05 | 0.05 | 0.05 | 84 | 1008.1 |
| 20260506131303 | 17 | 182 | 8.0 | 14.5 | 0.03 | 0.03 | 0.03 | 82 | 1008.0 |
| 20260506130804 | 17 | 211 | 11.3 | 19.3 | 0.03 | 0.03 | 0.03 | 82 | 1007.9 |
| 20260506125803 | 17 | 191 | 8.0 | 22.5 | 0.03 | 0.03 | 0.03 | 81 | 1007.8 |
| 20260506125305 | 18 | 206 | 9.7 | 24.1 | 0.00 | 0.00 | 0.00 | 81 | 1007.5 |
| 20260506124804 | 18 | 192 | 9.7 | 19.3 | 0.00 | 0.00 | 0.00 | 80 | 1007.6 |
| 20260506124304 | 18 | 206 | 11.3 | 19.3 | 0.00 | 0.00 | 0.00 | 79 | 1007.7 |
| 20260506123303 | 18 | 0 | 0.0 | 0.0 | 0.00 | 0.00 | 0.00 | 79 | 1007.8 |
| 20260506122803 | 18 | 0 | 0.0 | 0.0 | 0.00 | 0.00 | 0.00 | 79 | 1007.9 |
| 20260506122305 | 18 | 0 | 0.0 | 0.0 | 0.00 | 0.00 | 0.00 | 78 | 1008.1 |
| 20260506121803 | 18 | 0 | 0.0 | 0.0 | 0.00 | 0.00 | 0.00 | 78 | 1008.1 |
| 20260506121303 | 18 | 0 | 0.0 | 0.0 | 0.00 | 0.00 | 0.00 | 77 | 1008.2 |
| 20260506120804 | 18 | 0 | 0.0 | 0.0 | 0.00 | 0.00 | 0.00 | 76 | 1008.2 |
| 20260506120303 | 18 | 0 | 0.0 | 0.0 | 0.00 | 0.00 | 0.00 | 75 | 1008.2 |
| 20260506114804 | 18 | 0 | 0.0 | 0.0 | 0.00 | 0.00 | 0.00 | 72 | 1008.0 |
| 20260506114304 | 19 | 0 | 0.0 | 0.0 | 0.00 | 0.00 | 0.00 | 72 | 1007.9 |
| 20260506113805 | 19 | 0 | 0.0 | 0.0 | 0.00 | 0.00 | 0.00 | 72 | 1007.7 |
| 20260506112803 | 19 | 151 | 8.0 | 8.0 | 0.00 | 0.00 | 0.00 | 72 | 1007.6 |
| 20260506112306 | 19 | 151 | 8.0 | 29.0 | 0.00 | 0.00 | 0.00 | 72 | 1007.5 |
| 20260506111803 | 18 | 208 | 9.7 | 20.9 | 0.00 | 0.00 | 0.00 | 72 | 1007.5 |
| 20260506111303 | 18 | 199 | 14.5 | 25.7 | 0.00 | 0.00 | 0.00 | 72 | 1007.5 |
| 20260506110303 | 18 | 205 | 14.5 | 32.2 | 0.00 | 0.00 | 0.00 | 72 | 1007.4 |
| 20260506105803 | 18 | 185 | 12.9 | 27.4 | 0.00 | 0.00 | 0.00 | 72 | 1007.3 |
| 20260506105305 | 18 | 191 | 8.0 | 24.1 | 0.00 | 0.00 | 0.00 | 72 | 1007.3 |
| 20260506104804 | 18 | 196 | 14.5 | 27.4 | 0.00 | 0.00 | 0.00 | 72 | 1007.3 |
| 20260506103804 | 18 | 193 | 12.9 | 27.4 | 0.00 | 0.00 | 0.00 | 72 | 1007.2 |
| 20260506102804 | 18 | 211 | 17.7 | 25.7 | 0.00 | 0.00 | 0.00 | 72 | 1007.2 |
| 20260506101304 | 18 | 205 | 12.9 | 29.0 | 0.00 | 0.00 | 0.00 | 72 | 1007.2 |
| 20260506100804 | 18 | 205 | 9.7 | 25.7 | 0.00 | 0.00 | 0.00 | 71 | 1007.1 |
| 20260506100303 | 18 | 193 | 11.3 | 20.9 | 0.00 | 0.00 | 0.00 | 71 | 1007.1 |
| 20260506095804 | 18 | 198 | 11.3 | 27.4 | 0.00 | 0.00 | 0.00 | 71 | 1007.1 |
| 20260506095305 | 18 | 201 | 14.5 | 27.4 | 0.00 | 0.00 | 0.00 | 71 | 1007.1 |
| 20260506094804 | 18 | 212 | 16.1 | 25.7 | 0.00 | 0.00 | 0.00 | 71 | 1007.2 |
| 20260506094304 | 19 | 213 | 16.1 | 29.0 | 0.00 | 0.00 | 0.00 | 71 | 1007.2 |
| 20260506093803 | 19 | 186 | 16.1 | 33.8 | 0.00 | 0.00 | 0.00 | 71 | 1007.2 |
| 20260506092305 | 19 | 191 | 16.1 | 29.0 | 0.00 | 0.00 | 0.00 | 70 | 1007.1 |
| 20260506091803 | 19 | 196 | 14.5 | 27.4 | 0.00 | 0.00 | 0.00 | 70 | 1007.2 |
| 20260506091303 | 19 | 188 | 14.5 | 24.1 | 0.00 | 0.00 | 0.00 | 70 | 1007.2 |
| 20260506090803 | 19 | 189 | 14.5 | 22.5 | 0.00 | 0.00 | 0.00 | 69 | 1007.2 |
| 20260506090303 | 19 | 193 | 16.1 | 25.7 | 0.00 | 0.00 | 0.00 | 69 | 1007.2 |